Current weather by "City, St" or "zip code"  
 
Advertise Here

Current Conditions: Middleton Muni - Morey Field, WI

Overcast


32.0 F

Last Updated on Feb 28 2021, 5:55 am CST
Humidity: 96%
Wind Speed: N 0.0 mph
Barometer 29.75 in
Dewpoint: 30.7 F
Visibility: 0.75 mi
Precip: --
Heat Index: NA
Wind Chill: NA
Current conditions at:

Middleton Muni - Morey Field, WI (KC29)

Lat: 43.1142699 Lon: 89.5315336

Local Radar Image active severe weather and emergency alerts image image weather storm and storm spotter reports image weather observation monitoring service image
Local
Radar
Active
Alerts
Storm Reports Obs
Monitoring

Sign-up For Email & Text Message Weather Alert Notification Services


Advertise Here

Observation History for Middleton Muni - Morey Field, WI


Time Wind
(mph)
Vis
(mi)
Weather Precip (in) Temperature (F) Relative
Humidity
Wind
Chill
(F)
Heat
Index
(F)
Pressure
Air Dwpt altimeter
(in)
sea level
(mb)
Rmks
5:55 am CST N 0.0 0.75 Overcast -- 32.0 30.7 96% NA NA 29.75 M
4:55 am CST N 0.0 0.75 Overcast -- 29.0 28.0 96% NA NA 29.78 M
3:55 am CST W 3.5 0.15 Overcast -- 27.0 25.5 95% NA NA 29.81 M
2:55 am CST N 0.0 0.15 Overcast -- 25.0 23.2 94% NA NA 29.85 M
1:55 am CST N 0.0 0.15 Overcast -- 25.0 23.2 94% NA NA 29.90 M
12:55 am CST N 0.0 0.75 Sky Obscured -- 24.0 22.8 94% NA NA 29.93 M
11:55 pm CST N 0.0 1.50 Sky Obscured -- 28.0 26.6 95% NA NA 29.96 M
10:55 pm CST N 0.0 2.50 Fair -- 26.0 24.8 94% NA NA 29.98 M
9:55 pm CST N 0.0 4.00 Fair -- 31.0 28.8 92% NA NA 29.99 M
8:55 pm CST N 0.0 7.00 Fair -- 35.0 31.6 86% NA NA 30.00 M
7:55 pm CST S 4.6 10.00 Fair -- 37.0 31.5 82% 33 NA 30.00 M
6:55 pm CST SE 4.6 10.00 Fair -- 39.0 31.6 75% 36 NA 30.02 M
5:55 pm CST N 0.0 10.00 Fair -- 41.0 31.6 68% NA NA 30.01 M
4:55 pm CST S 4.6 10.00 Fair -- 45.0 31.3 60% 43 NA 30.02 M
3:55 pm CST S 6.9 10.00 Fair -- 48.0 29.8 49% 45 NA 30.01 M
2:55 pm CST S 6.9 10.00 Fair -- 49.0 28.0 44% 46 NA 30.00 M
1:55 pm CST S 6.9 10.00 Fair -- 47.0 28.9 49% 44 NA 30.00 M
12:55 pm CST S 5.8 10.00 Fair -- 47.0 29.3 50% 44 NA 30.00 M
11:55 am CST S 5.8 10.00 Fair -- 46.0 30.2 55% 43 NA 30.00 M
10:55 am CST S 6.9 10.00 Fair -- 43.0 30.2 60% 39 NA 29.98 M
9:55 am CST S 3.5 10.00 Fair -- 42.0 30.6 65% NA NA 29.95 M
8:55 am CST S 4.6 10.00 Fair -- 38.0 30.2 75% 34 NA 29.93 M
7:55 am CST N 0.0 7.00 Fair -- 33.0 29.1 87% NA NA 29.90 M
6:55 am CST SW 4.6 5.00 Fair -- 31.0 28.6 90% 26 NA 29.87 M

Regional Weather Observation


Baraboo Wisconsin Dells Airport, WI (KDLL)

Fog/Mist
31.0 F

Reedsburg Municipal Airport, WI (KC35)

Overcast
32.0 F

Madison, Dane County Regional-Truax Field, WI (KMSN)

Fog/Mist
32.0 F

Lone Rock Tri-County Regional Airport, WI (KLNR)

Fog/Mist
33.0 F

New Lisbon Mauston Airport, WI (K82C)

Fog/Mist
33.0 F

Volk / Camp Douglas, WI (KVOK)

Fog/Mist
31.0 F
Advertise Here

Advertise Here